Weather History for Natchitoches, LA

Change the Weather History Date:

Wednesday, March 27, 2013

  Actual Average Record
Temperature  
Mean Temperature 47 °F -  
Max Temperature 68 °F 73 °F 86 °F (2012)
Min Temperature 27 °F 49 °F 27 °F (2013)
Degree Days  
Heating Degree Days 18    
Moisture  
Dew Point 30 °F    
Average Humidity 60    
Maximum Humidity 99    
Minimum Humidity 23    
Precipitation  
Precipitation 0.00 in - - ()
Sea Level Pressure  
Sea Level Pressure 30.34 in    
Wind  
Wind Speed 2 mph (SSE)    
Max Wind Speed 10 mph    
Max Gust Speed 16 mph    
Visibility 10 miles    
Events      
Averages and records for this station are not official NWS values.
T = Trace of Precipitation, MM = Missing Value Source: NWS Daily Summary

Daily Weather History Graph

Daily Weather History Graph

Search for Another Location

Airport:

Trip Planner

Search our weather history database for the weather conditions in past years. The results will help you decide how hot, cold, wet, or windy it might be!

Date:

Astronomy

Mar. 27, 2013 Rise Set
Actual Time 7:06 AM CDT 7:28 PM CDT
Civil Twilight 6:42 AM CDT 7:53 PM CDT
Nautical Twilight 6:13 AM CDT 8:21 PM CDT
Astronomical Twilight 5:45 AM CDT 8:50 PM CDT
Moon 8:07 PM CDT (3/27) 7:01 AM CDT (3/27)
Length of Visible Light 13h 10m
Length of Day
12h 21m
Full, 100% of the Moon is Illuminated
Mar 27
Full
Apr 2
Last Quarter
Apr 10
New
Apr 18
First Quarter
Apr 25
Full

Hourly Weather History & Observations

Time (CDT) Temp. Windchill Dew Point Humidity Pressure Visibility Wind Dir Wind Speed Gust Speed Precip Events Conditions
12:15 AM 32.0 °F - 28.9 °F 88% 30.39 in 10.0 mi Calm Calm - N/A   Clear
12:35 AM 31.5 °F - 28.4 °F 88% 30.38 in 10.0 mi Calm Calm - N/A   Clear
12:55 AM 31.1 °F - 29.1 °F 92% 30.38 in 10.0 mi Calm Calm - N/A   Clear
1:15 AM 30.2 °F - 27.7 °F 90% 30.38 in 10.0 mi Calm Calm - N/A   Clear
1:35 AM 29.7 °F - 27.5 °F 92% 30.38 in 10.0 mi Calm Calm - N/A   Clear
1:55 AM 30.0 °F - 28.0 °F 92% 30.37 in 10.0 mi Calm Calm - N/A   Clear
2:15 AM 29.8 °F - 27.3 °F 90% 30.37 in 10.0 mi Calm Calm - N/A   Clear
2:35 AM 29.3 °F - 27.1 °F 92% 30.37 in 10.0 mi Calm Calm - N/A   Clear
2:55 AM 29.1 °F - 27.0 °F 92% 30.37 in 10.0 mi Calm Calm - N/A   Clear
3:15 AM 29.1 °F - 27.0 °F 92% 30.36 in 10.0 mi Calm Calm - N/A   Clear
3:35 AM 29.3 °F - 27.5 °F 93% 30.36 in 10.0 mi Calm Calm - N/A   Clear
3:55 AM 29.1 °F - 27.7 °F 94% 30.36 in 10.0 mi Calm Calm - N/A   Clear
4:15 AM 28.8 °F - 27.7 °F 96% 30.36 in 10.0 mi Calm Calm - N/A   Clear
4:35 AM 28.4 °F - 27.0 °F 94% 30.36 in 10.0 mi Calm Calm - N/A   Clear
4:55 AM 28.2 °F - 27.3 °F 96% 30.36 in 10.0 mi Calm Calm - N/A   Clear
5:15 AM 28.4 °F - 27.5 °F 96% 30.37 in 10.0 mi Calm Calm - N/A   Clear
5:35 AM 28.4 °F - 27.9 °F 98% 30.37 in 10.0 mi Calm Calm - N/A   Clear
5:55 AM 28.4 °F - 27.9 °F 98% 30.37 in 10.0 mi Calm Calm - N/A   Clear
6:15 AM 27.9 °F - 27.0 °F 96% 30.38 in 10.0 mi Calm Calm - N/A   Clear
6:35 AM 28.4 °F - 27.9 °F 98% 30.38 in 10.0 mi Calm Calm - N/A   Clear
6:55 AM 28.4 °F - 28.0 °F 99% 30.39 in 10.0 mi Calm Calm - N/A   Clear
7:15 AM 28.6 °F - 28.2 °F 99% 30.40 in 10.0 mi Calm Calm - N/A   Clear
7:35 AM 28.8 °F - 28.2 °F 98% 30.40 in 10.0 mi Calm Calm - N/A   Clear
7:55 AM 29.7 °F - 28.9 °F 97% 30.41 in 10.0 mi Calm Calm - N/A   Clear
8:15 AM 32.2 °F - 30.9 °F 95% 30.42 in 10.0 mi Calm Calm - N/A   Clear
8:35 AM 37.6 °F 34.0 °F 32.5 °F 82% 30.42 in 10.0 mi SE 4.6 mph - N/A   Clear
8:55 AM 40.6 °F 34.8 °F 32.2 °F 72% 30.43 in 10.0 mi SSE 9.2 mph - N/A   Clear
9:15 AM 42.3 °F 37.9 °F 32.0 °F 67% 30.44 in 10.0 mi SSE 6.9 mph - N/A   Clear
9:35 AM 45.0 °F 41.2 °F 31.5 °F 59% 30.44 in 10.0 mi SSE 6.9 mph - N/A   Clear
9:55 AM 47.3 °F - 31.1 °F 53% 30.43 in 10.0 mi South 6.9 mph - N/A   Clear
10:15 AM 49.8 °F - 31.1 °F 49% 30.44 in 10.0 mi SSE 9.2 mph - N/A   Clear
10:35 AM 51.6 °F - 29.7 °F 43% 30.44 in 10.0 mi SSE 10.4 mph - N/A   Clear
10:55 AM 52.3 °F - 29.1 °F 41% 30.44 in 10.0 mi SSE 9.2 mph - N/A   Clear
11:15 AM 54.3 °F - 28.9 °F 38% 30.44 in 10.0 mi South 9.2 mph - N/A   Clear
11:35 AM 55.4 °F - 27.7 °F 35% 30.42 in 10.0 mi SSE 8.1 mph - N/A   Clear
11:55 AM 56.7 °F - 27.7 °F 33% 30.42 in 10.0 mi SE 10.4 mph - N/A   Clear
12:15 PM 56.8 °F - 27.7 °F 33% 30.41 in 10.0 mi SSE 6.9 mph - N/A   Clear
12:35 PM 58.1 °F - 27.7 °F 31% 30.40 in 10.0 mi SSE 4.6 mph - N/A   Clear
12:55 PM 59.5 °F - 28.9 °F 31% 30.38 in 10.0 mi SSE 4.6 mph 16.1 mph N/A   Clear
1:15 PM 59.7 °F - 28.2 °F 30% 30.37 in 10.0 mi SSE 5.8 mph - N/A   Clear
1:35 PM 60.8 °F - 28.6 °F 29% 30.36 in 10.0 mi ESE 5.8 mph 16.1 mph N/A   Clear
1:55 PM 61.5 °F - 27.9 °F 28% 30.35 in 10.0 mi East 3.5 mph - N/A   Clear
2:15 PM 63.1 °F - 28.8 °F 27% 30.34 in 10.0 mi SE 6.9 mph - N/A   Clear
2:35 PM 63.3 °F - 28.4 °F 27% 30.33 in 10.0 mi ESE 3.5 mph - N/A   Clear
2:55 PM 64.6 °F - 28.9 °F 26% 30.32 in 10.0 mi ESE 8.1 mph - N/A   Clear
3:15 PM 65.7 °F - 29.5 °F 26% 30.30 in 10.0 mi SSE 4.6 mph - N/A   Clear
3:35 PM 66.0 °F - 28.4 °F 24% 30.29 in 10.0 mi South 4.6 mph - N/A   Clear
3:55 PM 65.8 °F - 28.0 °F 24% 30.28 in 10.0 mi ESE 3.5 mph - N/A   Clear
4:15 PM 66.4 °F - 27.9 °F 24% 30.27 in 10.0 mi Calm Calm - N/A   Clear
4:35 PM 67.8 °F - 28.8 °F 23% 30.26 in 10.0 mi Calm Calm - N/A   Clear
4:55 PM 67.5 °F - 30.4 °F 25% 30.25 in 10.0 mi SE 5.8 mph - N/A   Clear
5:15 PM 67.3 °F - 29.3 °F 24% 30.25 in 10.0 mi SSE 8.1 mph - N/A   Clear
5:35 PM 67.1 °F - 29.1 °F 24% 30.25 in 10.0 mi SSE 6.9 mph - N/A   Clear
5:55 PM 66.9 °F - 29.1 °F 24% 30.25 in 10.0 mi SSE 4.6 mph - N/A   Clear
6:15 PM 65.7 °F - 28.6 °F 25% 30.24 in 10.0 mi SSE 6.9 mph - N/A   Clear
6:35 PM 64.0 °F - 29.1 °F 27% 30.24 in 7.0 mi Calm Calm - N/A   Clear
6:55 PM 63.3 °F - 30.0 °F 29% 30.23 in 7.0 mi Calm Calm - N/A   Clear
7:15 PM 61.3 °F - 30.0 °F 31% 30.22 in 7.0 mi Calm Calm - N/A   Clear
7:35 PM 58.5 °F - 32.0 °F 37% 30.22 in 10.0 mi Calm Calm - N/A   Clear
7:55 PM 57.0 °F - 31.8 °F 38% 30.22 in 10.0 mi ESE 4.6 mph - N/A   Clear
8:15 PM 55.9 °F - 32.0 °F 40% 30.22 in 10.0 mi SE 3.5 mph - N/A   Clear
8:35 PM 49.5 °F - 37.0 °F 62% 30.23 in 10.0 mi Calm Calm - N/A   Clear
8:55 PM 48.0 °F - 37.8 °F 68% 30.24 in 10.0 mi Calm Calm - N/A   Clear
9:15 PM 47.5 °F - 37.0 °F 67% 30.24 in 10.0 mi Calm Calm - N/A   Clear
9:35 PM 47.8 °F - 36.5 °F 65% 30.25 in 10.0 mi Calm Calm - N/A   Clear
9:55 PM 50.0 °F - 32.5 °F 51% 30.26 in 10.0 mi SSE 5.8 mph - N/A   Clear
10:15 PM 51.4 °F - 32.7 °F 49% 30.27 in 10.0 mi SSE 6.9 mph - N/A   Clear
10:35 PM 50.9 °F - 32.4 °F 49% 30.28 in 10.0 mi South 4.6 mph - N/A   Clear
10:55 PM 49.5 °F - 32.7 °F 53% 30.28 in 10.0 mi South 5.8 mph - N/A   Clear
11:15 PM 46.4 °F 45.2 °F 35.1 °F 65% 30.28 in 10.0 mi SSW 3.5 mph - N/A   Clear
11:35 PM 46.6 °F - 34.2 °F 62% 30.29 in 10.0 mi Calm Calm - N/A   Clear
11:55 PM 45.0 °F - 35.1 °F 68% 30.29 in 10.0 mi Calm Calm - N/A   Clear